User: anonymous   Login
Location: Unspecified
(42.1900°N, 71.3291°W)
Time: 07:49:13
(UTC-04:00)
Language:

Resurs 1-4 Rocket - Orbit

View from above orbital plane
View from above orbital plane
View from above satellite
View from above satellite

Ground track
Ground track

The orbit data is extracted from the following two-line orbital elements,

1 25400U 98043G   16271.96348735  .00000008  00000-0  21077-4 0  9996
2 25400  98.4499 223.0868 0009661 350.1980   9.9010 14.25391531947714
Epoch (UTC): 27 September 2016 23:07:25
Eccentricity: 0.0009661
inclination: 98.4499°
perigee height: 800 km
apogee height: 814 km
right ascension of ascending node: 223.0868°
argument of perigee: 350.1980°
revolutions per day: 14.25391531
mean anomaly at epoch: 9.9010°
orbit number at epoch: 94771

The dashed part of the orbit path shows where the satellite is in the earth's shadow,  

DLR